User: anonymous   Login
Location: Arrodets-la-Barthe
(43.0306°N, 0.2829°E)
Time: 16:49:24
(UTC+00:00)
Language:

Cosmos 2322 - Orbit

View from above orbital plane
View from above orbital plane
View from above satellite
View from above satellite

Ground track
Ground track

The orbit data is extracted from the following two-line orbital elements,

1 23704U 95058A   22018.76202414  .00000344  00000-0  20787-3 0  9990
2 23704  70.9867 129.5581 0007834  72.8884 287.3095 14.13452679352539
Epoch (UTC): 18 January 2022 18:17:18
Eccentricity: 0.0007834
inclination: 70.9867°
perigee height: 842 km
apogee height: 853 km
right ascension of ascending node: 129.5581°
argument of perigee: 72.8884°
revolutions per day: 14.13452679
mean anomaly at epoch: 287.3095°
orbit number at epoch: 35253

The dashed part of the orbit path shows where the satellite is in the earth's shadow,  

DLR